Terug naar catalogus

STARLINK-4268

ActiefCommunicatieVLEO
NORAD 53183·PAYLOAD·🇺🇸 United States

Gelanceerd Jul 17, 2022 vanaf Cape Canaveral Space Force Station

Loading…

Volgende Passages (komende 24 uur)

TLE

VersSource: CelesTrak SupGP

Epoch: Sep 14, 2026, 22:11 UTC

1 53183C 22083BD  26257.92479167 -.00035126  00000+0 -10051-2 0  2576
2 53183  53.1587 347.9483 0001126  86.8972 214.8515 15.35413540    17

Volg STARLINK-4268 in realtime met AllMySat

Download on the App Store